User: anonymous   Login
Location: Newark
(44.2003°N, 3.2583°E)
Time: 04:34:45
(UTC+00:00)
Language:

Envisat - Orbit

View from above orbital plane
View from above orbital plane
View from above satellite
View from above satellite

Ground track
Ground track

The orbit data is extracted from the following two-line orbital elements,

1 27386U 02009A   19293.87369108  .00000011  00000-0  17091-4 0  9997
2 27386  98.1450 308.5198 0001195  93.9856 317.0347 14.37960286924045
Epoch (UTC): 20 October 2019 20:58:06
Eccentricity: 0.0001195
inclination: 98.1450°
perigee height: 764 km
apogee height: 766 km
right ascension of ascending node: 308.5198°
argument of perigee: 93.9856°
revolutions per day: 14.37960286
mean anomaly at epoch: 317.0347°
orbit number at epoch: 92404

The dashed part of the orbit path shows where the satellite is in the earth's shadow,  

DLR